Location: Florence
(33.9745°N, 118.2481°W)
Time: 19:38:54
(UTC+00:00)

Cosmos 1536 - Pass Details

Date: 23 March 2023
Orbit: 526 x 553 km, 82.5° (Epoch: 05 June)

Event Time Altitude Azimuth Distance (km) Brightness Sun altitude
Rises 13:20:10 0° 353° (N) 2,684 6.3 -7.6°
Reaches altitude 10° 13:22:19 10° 353° (N) 1,794 5.4 -7.1°
Maximum altitude 13:26:16 87° 267° (W) 544 2.8 -6.3°
Drops below altitude 10° 13:30:13 10° 176° (S) 1,800 5.5 -5.5°
Sets 13:32:23 0° 175° (S) 2,693 6.3 -5.1°
